#timestamp,LO_Frequency,Hit,StdDev 
1712646015.4,286047000.2,P
1712646035.3,286046993.4,N
1712646055.1,286046991.6,N
1712646056.0,286046991.6,N
1712646075.8,286046986.4,Y
1712646095.7,286046987.4,P
1712646115.5,286046981.2,P
1712646135.4,286046976.0,P
1712646155.2,286046976.7,Y
1712646175.0,286046988.6,P
1712646175.9,286046988.6,P
1712646195.8,286046989.3,P
1712646215.6,286046993.8,Y
1712646235.4,286047012.0,P
1712646255.3,286047009.7,N
1712646275.1,286047012.4,N
1712646295.9,286047011.0,N
1712646315.7,286047010.9,N
1712646335.5,286047014.4,N
1712646355.4,286047016.4,N
1712646375.2,286047018.6,N
1712646395.0,286047008.0,N
1712646395.9,286047008.0,N
1712646415.8,286047000.6,N
1712646435.6,286046998.1,N
1712646455.5,286046994.5,N
1712646475.3,286046991.1,N
1712646495.1,286046984.3,N
1712646515.9,286046986.8,N
1712646535.7,286046985.4,N
1712646555.5,286046988.3,N
1712646575.4,286046987.4,N
1712646595.2,286046990.2,N
1712646615.1,286046993.8,N
1712646616.0,286046993.8,N
1712646635.8,286046993.8,N
1712646655.6,286046995.5,N
1712646675.5,286046998.7,N
1712646695.3,286046999.5,N
1712646715.2,286046995.6,N
1712646735.9,286046992.1,N
1712646755.7,286046993.9,N
1712646775.6,286046991.7,N
1712646795.4,286046989.7,N
1712646815.2,286046984.2,N
1712646835.1,286046983.4,N
1712646836.0,286046983.4,N
1712646855.8,286046982.6,N
1712646875.7,286046985.0,N
1712646895.5,286046986.5,N
1712646915.3,286046986.2,N
1712646935.2,286046982.6,N
1712646955.0,286046977.9,Y
1712646955.9,286046977.9,P
1712646975.8,286046980.8,N
1712646995.6,286046979.8,P
1712647015.4,286046983.6,Y
1712647035.3,286046997.4,P
1712647055.1,286046995.6,N
1712647075.9,286046993.3,N
1712647095.7,286046996.3,N
1712647115.5,286046992.1,N
1712647135.4,286046996.4,N
1712647155.2,286046996.3,N
1712647175.0,286046992.8,N
1712647175.9,286046992.8,N
1712647195.8,286046987.0,Y
1712647215.6,286046988.5,P
1712647235.5,286046988.5,P
1712647255.3,286046985.2,P
1712647275.1,286046981.4,Y
1712647295.9,286046988.6,P
1712647315.7,286046985.3,P
1712647335.5,286046988.2,P
1712647355.4,286046988.6,Y
1712647375.2,286047000.3,P
1712647395.1,286046996.4,N
1712647396.0,286046996.4,N
1712647415.8,286046993.0,N
1712647435.6,286046997.9,N
1712647455.5,286046991.3,N
1712647475.3,286046989.1,N
1712647495.2,286046985.4,Y
1712647515.9,286046985.8,P
1712647535.7,286046989.8,N
1712647555.6,286046989.2,P
1712647575.4,286046985.5,Y
1712647595.2,286046996.2,P
1712647615.1,286046990.8,N
1712647616.0,286046990.8,P
1712647635.8,286046994.2,N
1712647655.7,286046995.0,N
1712647675.5,286046992.9,N
1712647695.3,286046992.8,Y
1712647715.2,286046998.8,P
1712647735.0,286046994.9,N
1712647735.9,286046994.9,N
1712647755.7,286046994.6,N
1712647775.6,286046995.9,N
1712647795.4,286046993.3,Y
1712647815.3,286047001.0,P
1712647835.1,286046999.2,N
1712647836.0,286046999.2,N
1712647855.8,286046996.4,N
1712647875.7,286046991.7,Y
1712647895.5,286046994.5,P
1712647915.4,286046991.8,P
1712647935.2,286046994.0,N
1712647955.0,286046991.0,Y
1712647955.9,286046991.0,P
1712647975.8,286046993.3,P
1712647995.6,286046992.5,P
1712648015.5,286046991.5,Y
1712648035.3,286047000.4,P
1712648055.1,286046996.5,N
1712648075.9,286046998.9,N
1712648095.7,286046999.0,N
1712648115.5,286046997.9,N
1712648135.4,286046994.4,N
1712648155.2,286046992.2,Y
1712648175.1,286046995.9,P
1712648176.0,286046995.9,P
1712648195.8,286046992.5,P
1712648215.6,286046992.8,Y
1712648235.5,286046994.8,P
1712648255.3,286046991.6,P
1712648275.2,286046989.7,P
1712648295.9,286046987.4,Y
1712648315.7,286046994.0,P
1712648335.6,286046991.7,P
1712648355.4,286046991.0,P
1712648375.3,286046994.3,Y
1712648395.1,286047001.1,P
1712648415.8,286046998.6,N
1712648435.7,286046999.8,N
1712648455.5,286046998.3,N
1712648475.4,286046996.5,N
1712648495.2,286046993.8,N
1712648515.0,286046992.8,N
1712648515.9,286046992.8,N
1712648535.8,286046991.5,N
1712648555.6,286046987.6,Y
1712648575.5,286046991.2,P
1712648595.3,286046987.8,P
1712648615.1,286046983.9,P
1712648635.9,286046984.4,Y
1712648655.7,286046992.1,P
1712648675.6,286046992.3,P
1712648695.4,286046991.5,P
1712648715.2,286046991.1,Y
1712648735.1,286046996.5,P
1712648736.0,286046996.5,N
1712648755.8,286046997.8,N
1712648775.6,286046997.5,N
1712648795.5,286046994.2,N
1712648815.3,286046992.2,Y
1712648835.2,286046993.6,P
1712648855.0,286046992.4,P
1712648855.9,286046992.4,P
1712648875.8,286046990.2,Y
1712648895.6,286046994.9,P
1712648915.4,286046995.3,P
1712648935.3,286046995.6,P
1712648955.1,286046992.1,Y
1712648975.9,286046997.0,P
1712648995.7,286046997.6,N
1712649015.5,286046994.0,P
1712649035.4,286046994.2,Y
1712649055.2,286046999.4,P
1712649075.0,286046997.1,N
1712649075.9,286046997.1,N
1712649095.8,286046996.7,N
1712649115.6,286046999.2,N
1712649135.5,286046997.8,N
1712649155.3,286046996.4,Y
1712649175.1,286046995.5,P
1712649195.9,286046994.7,P
1712649215.7,286046990.9,P
1712649235.6,286046989.8,Y
1712649255.4,286046993.9,P
1712649275.2,286046990.1,P
1712649295.1,286046989.5,P
1712649296.0,286046989.5,Y
1712649315.8,286046996.0,P
1712649335.7,286046994.8,N
1712649355.5,286046990.1,P
1712649375.3,286046989.7,Y
1712649395.2,286046993.3,P
1712649415.0,286046993.6,P
1712649415.9,286046993.6,P
1712649435.7,286046992.9,Y
1712649455.6,286046997.8,P
1712649475.4,286046997.8,N
1712649495.3,286046993.4,P
1712649515.1,286046993.7,N
1712649516.0,286046993.7,Y
1712649535.8,286046998.9,P
1712649555.7,286046998.8,N
1712649575.5,286046998.8,N
1712649595.4,286046999.1,N
